QPF
0.00 0.00 0.00 0.00 0.00 0.00 0.01 0.00 0.00 0.00 0.00 0.00 0.00 0.00 0.00 0.00 0.00 0.00 0.00 0.00 0.00 0.00 0.01 0.01 0.01 0.01 0.01 0.01 0.00 0.00 0.00 0.00 0.00 0.00 0.00 0.00 0.00 0.00 0.00 0.00 0.02 0.01 0.00
0.00 0.00 0.00 0.00 0.00 0.00 0.00 0.01 0.01 0.00 0.00 0.00 0.00 0.00 0.00 0.00 0.00 0.00 0.00 0.00 0.00 0.00 0.00 0.00 0.00 0.00 0.00 0.00 0.00 0.00 0.00 0.00 0.00 0.00 0.00 0.00 0.00 0.00 0.00 0.01 0.03 0.01 0.00
0.00 0.00 0.00 0.00 0.00 0.00 0.00 0.01 0.01 0.01 0.00 0.00 0.00 0.00 0.01 0.00 0.00 0.00 0.00 0.00 0.00 0.00 0.00 0.00 0.00 0.00 0.00 0.00 0.00 0.00 0.00 0.00 0.01 0.02 0.06 0.03 0.00 0.00 0.00 0.01 0.02 0.01 0.01
0.00 0.00 0.00 0.00 0.00 0.00 0.01 0.01 0.02 0.02 0.01 0.01 0.01 0.01 0.01 0.01 0.00 0.00 0.00 0.00 0.00 0.00 0.00 0.00 0.00 0.00 0.00 0.00 0.00 0.00 0.00 0.00 0.02 0.06 0.14 0.05 0.01 0.00 0.00 0.01 0.01 0.02 0.02
0.00 0.00 0.00 0.00 0.00 0.00 0.01 0.01 0.02 0.03 0.03 0.02 0.02 0.01 0.01 0.01 0.01 0.01 0.00 0.00 0.00 0.00 0.00 0.00 0.00 0.00 0.00 0.00 0.00 0.00 0.00 0.01 0.03 0.08 0.10 0.06 0.02 0.00 0.00 0.01 0.01 0.02 0.03
0.00 0.00 0.00 0.00 0.00 0.00 0.01 0.01 0.02 0.04 0.04 0.04 0.03 0.02 0.02 0.01 0.01 0.01 0.00 0.00 0.00 0.00 0.00 0.00 0.00 0.00 0.00 0.00 0.00 0.00 0.00 0.01 0.03 0.06 0.09 0.10 0.04 0.01 0.01 0.01 0.01 0.03 0.03
0.00 0.00 0.00 0.00 0.00 0.00 0.01 0.02 0.04 0.04 0.04 0.04 0.04 0.03 0.03 0.02 0.01 0.01 0.00 0.00 0.00 0.00 0.00 0.00 0.00 0.00 0.00 0.00 0.00 0.01 0.01 0.01 0.03 0.05 0.07 0.05 0.03 0.01 0.00 0.01 0.01 0.02 0.03
0.00 0.00 0.00 0.00 0.00 0.01 0.02 0.03 0.05 0.05 0.05 0.05 0.04 0.03 0.02 0.02 0.01 0.01 0.00 0.00 0.00 0.00 0.00 0.00 0.00 0.00 0.00 0.00 0.01 0.01 0.01 0.01 0.02 0.02 0.03 0.03 0.02 0.01 0.00 0.01 0.01 0.02 0.02
0.00 0.00 0.00 0.00 0.00 0.01 0.03 0.04 0.05 0.05 0.05 0.05 0.04 0.02 0.02 0.01 0.01 0.01 0.00 0.00 0.00 0.00 0.00 0.00 0.00 0.00 0.00 0.00 0.00 0.01 0.01 0.00 0.01 0.01 0.04 0.05 0.02 0.01 0.01 0.01 0.01 0.02 0.01
0.00 0.00 0.00 0.00 0.00 0.00 0.00 0.02 0.04 0.05 0.05 0.05 0.03 0.02 0.01 0.01 0.01 0.01 0.01 0.00 0.00 0.00 0.00 0.00 0.00 0.00 0.00 0.00 0.00 0.00 0.00 0.00 0.01 0.03 0.06 0.10 0.07 0.02 0.01 0.01 0.02 0.01 0.01
0.00 0.00 0.00 0.00 0.00 0.00 0.00 0.00 0.01 0.02 0.03 0.02 0.01 0.01 0.01 0.01 0.02 0.02 0.01 0.00 0.00 0.00 0.00 0.00 0.00 0.00 0.00 0.00 0.00 0.00 0.00 0.00 0.01 0.03 0.04 0.07 0.05 0.02 0.02 0.02 0.02 0.02 0.01
0.00 0.00 0.00 0.00 0.00 0.00 0.01 0.02 0.02 0.02 0.02 0.01 0.04 0.01 0.02 0.07 0.07 0.05 0.03 0.01 0.00 0.00 0.00 0.00 0.01 0.01 0.01 0.01 0.01 0.00 0.00 0.00 0.02 0.03 0.03 0.02 0.02 0.02 0.02 0.02 0.02 0.03 0.02
0.00 0.00 0.00 0.00 0.00 0.01 0.03 0.04 0.06 0.08 0.07 0.08 0.11 0.05 0.06 0.08 0.06 0.04 0.04 0.03 0.01 0.01 0.03 0.05 0.03 0.03 0.02 0.02 0.02 0.01 0.01 0.01 0.02 0.02 0.02 0.02 0.02 0.02 0.02 0.03 0.02 0.03 0.03
0.00 0.00 0.00 0.00 0.01 0.01 0.03 0.06 0.05 0.06 0.06 0.07 0.09 0.06 0.08 0.07 0.05 0.04 0.05 0.04 0.05 0.05 0.06 0.06 0.04 0.04 0.02 0.02 0.02 0.01 0.01 0.00 0.02 0.03 0.02 0.02 0.02 0.02 0.02 0.02 0.03 0.04 0.04
0.00 0.00 0.00 0.01 0.02 0.04 0.07 0.07 0.04 0.04 0.04 0.06 0.08 0.08 0.08 0.06 0.04 0.03 0.03 0.04 0.04 0.05 0.07 0.05 0.04 0.04 0.03 0.02 0.01 0.01 0.00 0.00 0.01 0.02 0.03 0.03 0.02 0.03 0.03 0.02 0.02 0.04 0.04
0.00 0.00 0.00 0.01 0.01 0.03 0.04 0.05 0.05 0.04 0.05 0.07 0.07 0.06 0.05 0.05 0.04 0.04 0.04 0.04 0.04 0.05 0.06 0.08 0.06 0.06 0.04 0.03 0.03 0.02 0.01 0.01 0.01 0.01 0.03 0.06 0.05 0.03 0.03 0.03 0.03 0.04 0.04
0.00 0.00 0.00 0.01 0.02 0.03 0.04 0.04 0.04 0.04 0.04 0.04 0.06 0.06 0.03 0.03 0.04 0.04 0.05 0.07 0.06 0.06 0.06 0.08 0.07 0.07 0.05 0.04 0.05 0.06 0.07 0.08 0.08 0.05 0.03 0.05 0.08 0.07 0.06 0.05 0.04 0.04 0.03
0.01 0.02 0.01 0.01 0.03 0.03 0.04 0.05 0.04 0.04 0.04 0.04 0.03 0.04 0.03 0.03 0.04 0.06 0.06 0.07 0.08 0.08 0.09 0.11 0.10 0.10 0.10 0.09 0.08 0.08 0.08 0.08 0.07 0.09 0.06 0.07 0.13 0.14 0.14 0.10 0.06 0.05 0.03
0.02 0.03 0.03 0.03 0.05 0.05 0.05 0.04 0.03 0.04 0.05 0.06 0.05 0.05 0.06 0.07 0.08 0.08 0.08 0.10 0.11 0.12 0.11 0.11 0.12 0.13 0.16 0.15 0.12 0.11 0.08 0.07 0.09 0.10 0.07 0.06 0.11 0.16 0.20 0.18 0.11 0.07 0.04
0.03 0.04 0.04 0.05 0.08 0.10 0.09 0.08 0.07 0.07 0.07 0.07 0.08 0.09 0.09 0.09 0.09 0.09 0.09 0.10 0.11 0.12 0.12 0.13 0.12 0.12 0.14 0.13 0.10 0.11 0.12 0.11 0.12 0.12 0.10 0.07 0.08 0.10 0.13 0.14 0.13 0.09 0.05
0.06 0.07 0.09 0.09 0.10 0.10 0.11 0.11 0.12 0.14 0.14 0.12 0.11 0.11 0.12 0.13 0.12 0.12 0.13 0.13 0.12 0.14 0.17 0.16 0.13 0.14 0.13 0.10 0.11 0.12 0.13 0.12 0.12 0.11 0.09 0.07 0.06 0.08 0.09 0.10 0.09 0.09 0.08
0.10 0.09 0.09 0.10 0.11 0.11 0.13 0.16 0.19 0.18 0.17 0.17 0.17 0.17 0.15 0.15 0.16 0.16 0.16 0.15 0.13 0.13 0.14 0.14 0.13 0.13 0.13 0.13 0.13 0.14 0.14 0.13 0.11 0.08 0.06 0.06 0.05 0.05 0.06 0.06 0.06 0.06 0.06
0.10 0.11 0.10 0.10 0.11 0.13 0.16 0.20 0.23 0.24 0.23 0.24 0.21 0.19 0.18 0.15 0.12 0.10 0.09 0.10 0.10 0.10 0.11 0.12 0.14 0.16 0.16 0.14 0.14 0.16 0.15 0.13 0.11 0.07 0.04 0.03 0.03 0.04 0.04 0.03 0.03 0.03 0.03
0.07 0.09 0.11 0.10 0.10 0.12 0.15 0.21 0.23 0.20 0.23 0.25 0.26 0.21 0.16 0.12 0.10 0.08 0.07 0.06 0.06 0.07 0.09 0.10 0.12 0.13 0.13 0.13 0.15 0.15 0.14 0.12 0.11 0.09 0.07 0.05 0.04 0.04 0.03 0.03 0.02 0.02 0.02
0.06 0.07 0.08 0.10 0.12 0.12 0.15 0.20 0.23 0.26 0.31 0.31 0.26 0.19 0.16 0.13 0.11 0.10 0.08 0.06 0.06 0.07 0.08 0.08 0.07 0.07 0.07 0.07 0.08 0.08 0.08 0.08 0.07 0.06 0.06 0.05 0.03 0.02 0.02 0.02 0.02 0.02 0.02
0.06 0.06 0.06 0.06 0.09 0.11 0.15 0.21 0.25 0.28 0.29 0.27 0.25 0.21 0.18 0.15 0.11 0.09 0.07 0.06 0.06 0.06 0.05 0.05 0.05 0.05 0.04 0.04 0.04 0.04 0.04 0.04 0.03 0.03 0.04 0.03 0.03 0.02 0.02 0.02 0.02 0.02 0.02
MSLP
1009.45 1009.59 1009.87 1010.29 1010.84 1011.45 1012.07 1012.65 1013.13 1013.51 1013.81 1014.05 1014.30 1014.57 1014.89 1015.23 1015.57 1015.88 1016.12 1016.28 1016.37 1016.43 1016.48 1016.56 1016.69 1016.85 1017.02 1017.18 1017.28 1017.31 1017.29 1017.23 1017.16 1017.15 1017.20 1017.33 1017.53 1017.76 1017.99 1018.19 1018.33 1018.44 1018.51
1009.57 1009.82 1010.17 1010.63 1011.18 1011.77 1012.34 1012.85 1013.27 1013.60 1013.87 1014.13 1014.42 1014.76 1015.15 1015.57 1015.97 1016.30 1016.53 1016.66 1016.71 1016.71 1016.72 1016.77 1016.88 1017.04 1017.22 1017.39 1017.49 1017.53 1017.50 1017.43 1017.36 1017.34 1017.40 1017.55 1017.77 1018.04 1018.30 1018.53 1018.70 1018.81 1018.89
1009.43 1009.79 1010.24 1010.78 1011.37 1011.98 1012.55 1013.03 1013.42 1013.72 1013.98 1014.24 1014.55 1014.92 1015.34 1015.79 1016.21 1016.55 1016.77 1016.88 1016.91 1016.89 1016.88 1016.92 1017.03 1017.19 1017.37 1017.53 1017.64 1017.66 1017.61 1017.52 1017.44 1017.42 1017.49 1017.65 1017.90 1018.20 1018.51 1018.78 1018.99 1019.13 1019.23
1009.10 1009.57 1010.12 1010.75 1011.43 1012.10 1012.71 1013.22 1013.62 1013.92 1014.17 1014.42 1014.72 1015.08 1015.50 1015.94 1016.35 1016.68 1016.90 1017.01 1017.03 1017.02 1017.02 1017.07 1017.19 1017.35 1017.53 1017.68 1017.76 1017.75 1017.67 1017.56 1017.46 1017.42 1017.49 1017.66 1017.94 1018.27 1018.61 1018.92 1019.18 1019.37 1019.50
1008.72 1009.26 1009.90 1010.63 1011.41 1012.18 1012.87 1013.44 1013.88 1014.20 1014.45 1014.69 1014.96 1015.29 1015.67 1016.07 1016.46 1016.77 1016.99 1017.11 1017.15 1017.17 1017.20 1017.28 1017.41 1017.58 1017.75 1017.87 1017.91 1017.86 1017.74 1017.58 1017.44 1017.39 1017.44 1017.62 1017.90 1018.26 1018.63 1018.99 1019.29 1019.53 1019.70
1008.43 1009.01 1009.70 1010.51 1011.39 1012.25 1013.03 1013.69 1014.18 1014.54 1014.80 1015.02 1015.26 1015.55 1015.88 1016.23 1016.58 1016.87 1017.09 1017.23 1017.32 1017.38 1017.46 1017.57 1017.72 1017.89 1018.03 1018.11 1018.10 1017.99 1017.81 1017.61 1017.43 1017.35 1017.39 1017.56 1017.84 1018.21 1018.60 1018.99 1019.32 1019.60 1019.83
1008.34 1008.90 1009.62 1010.47 1011.41 1012.35 1013.21 1013.94 1014.49 1014.89 1015.16 1015.38 1015.59 1015.83 1016.11 1016.42 1016.73 1017.01 1017.23 1017.40 1017.53 1017.64 1017.76 1017.91 1018.07 1018.23 1018.34 1018.37 1018.30 1018.13 1017.89 1017.64 1017.43 1017.31 1017.34 1017.49 1017.78 1018.14 1018.55 1018.95 1019.31 1019.62 1019.87
1008.46 1008.99 1009.68 1010.54 1011.50 1012.47 1013.37 1014.14 1014.73 1015.16 1015.45 1015.67 1015.87 1016.08 1016.33 1016.61 1016.89 1017.15 1017.38 1017.56 1017.72 1017.87 1018.03 1018.20 1018.37 1018.51 1018.58 1018.56 1018.43 1018.21 1017.93 1017.64 1017.40 1017.27 1017.28 1017.43 1017.71 1018.07 1018.48 1018.88 1019.25 1019.58 1019.86
1008.75 1009.22 1009.87 1010.70 1011.62 1012.58 1013.47 1014.23 1014.83 1015.27 1015.58 1015.81 1016.01 1016.22 1016.46 1016.72 1016.98 1017.24 1017.46 1017.65 1017.83 1017.99 1018.17 1018.34 1018.50 1018.62 1018.66 1018.60 1018.43 1018.17 1017.86 1017.55 1017.31 1017.18 1017.19 1017.35 1017.63 1018.00 1018.40 1018.80 1019.18 1019.51 1019.80
1009.08 1009.51 1010.11 1010.87 1011.74 1012.62 1013.45 1014.17 1014.75 1015.18 1015.49 1015.74 1015.96 1016.19 1016.43 1016.70 1016.96 1017.20 1017.41 1017.59 1017.76 1017.93 1018.09 1018.26 1018.40 1018.50 1018.51 1018.43 1018.24 1017.97 1017.66 1017.36 1017.13 1017.02 1017.06 1017.23 1017.53 1017.90 1018.31 1018.72 1019.09 1019.43 1019.72
1009.32 1009.74 1010.31 1011.01 1011.79 1012.57 1013.31 1013.95 1014.46 1014.87 1015.18 1015.45 1015.70 1015.96 1016.23 1016.51 1016.77 1017.00 1017.20 1017.36 1017.50 1017.64 1017.79 1017.93 1018.06 1018.14 1018.15 1018.06 1017.88 1017.62 1017.33 1017.07 1016.87 1016.80 1016.87 1017.08 1017.40 1017.79 1018.21 1018.62 1018.99 1019.33 1019.62
1009.36 1009.83 1010.39 1011.05 1011.74 1012.43 1013.05 1013.58 1014.02 1014.38 1014.69 1014.97 1015.26 1015.57 1015.88 1016.18 1016.45 1016.67 1016.84 1016.97 1017.07 1017.18 1017.29 1017.41 1017.53 1017.61 1017.63 1017.56 1017.41 1017.19 1016.95 1016.73 1016.58 1016.56 1016.67 1016.91 1017.25 1017.66 1018.09 1018.50 1018.88 1019.21 1019.50
1009.17 1009.72 1010.33 1010.97 1011.61 1012.20 1012.71 1013.14 1013.50 1013.81 1014.10 1014.41 1014.73 1015.08 1015.43 1015.76 1016.04 1016.25 1016.39 1016.49 1016.56 1016.63 1016.71 1016.82 1016.94 1017.04 1017.08 1017.06 1016.95 1016.79 1016.60 1016.43 1016.33 1016.34 1016.48 1016.75 1017.11 1017.53 1017.96 1018.38 1018.74 1019.07 1019.35
1008.78 1009.45 1010.14 1010.80 1011.40 1011.93 1012.36 1012.71 1012.99 1013.26 1013.54 1013.85 1014.21 1014.60 1014.99 1015.34 1015.63 1015.83 1015.96 1016.03 1016.06 1016.11 1016.18 1016.29 1016.42 1016.55 1016.64 1016.67 1016.62 1016.51 1016.37 1016.25 1016.19 1016.22 1016.38 1016.65 1017.01 1017.42 1017.84 1018.24 1018.60 1018.90 1019.16
1008.28 1009.09 1009.86 1010.57 1011.18 1011.67 1012.05 1012.34 1012.58 1012.81 1013.09 1013.41 1013.80 1014.22 1014.63 1015.01 1015.31 1015.51 1015.62 1015.67 1015.70 1015.74 1015.81 1015.93 1016.09 1016.26 1016.40 1016.49 1016.50 1016.45 1016.35 1016.26 1016.21 1016.25 1016.39 1016.64 1016.97 1017.36 1017.75 1018.12 1018.45 1018.72 1018.95
1007.82 1008.73 1009.58 1010.34 1010.96 1011.45 1011.81 1012.08 1012.31 1012.54 1012.81 1013.16 1013.56 1014.00 1014.44 1014.83 1015.14 1015.35 1015.46 1015.51 1015.54 1015.59 1015.68 1015.83 1016.02 1016.23 1016.42 1016.56 1016.63 1016.61 1016.55 1016.47 1016.42 1016.43 1016.54 1016.74 1017.03 1017.36 1017.71 1018.03 1018.32 1018.55 1018.73
1007.51 1008.47 1009.36 1010.15 1010.79 1011.29 1011.67 1011.95 1012.19 1012.43 1012.73 1013.09 1013.52 1013.97 1014.43 1014.83 1015.14 1015.36 1015.49 1015.56 1015.61 1015.68 1015.79 1015.97 1016.20 1016.44 1016.67 1016.85 1016.95 1016.97 1016.92 1016.85 1016.78 1016.75 1016.81 1016.95 1017.16 1017.43 1017.71 1017.98 1018.22 1018.40 1018.54
1007.46 1008.38 1009.25 1010.02 1010.67 1011.18 1011.58 1011.90 1012.18 1012.47 1012.81 1013.20 1013.65 1014.12 1014.58 1015.00 1015.33 1015.57 1015.72 1015.81 1015.89 1015.98 1016.12 1016.32 1016.56 1016.83 1017.08 1017.27 1017.39 1017.43 1017.39 1017.31 1017.22 1017.15 1017.15 1017.23 1017.37 1017.56 1017.77 1017.98 1018.16 1018.31 1018.41
1007.71 1008.51 1009.28 1009.99 1010.60 1011.11 1011.54 1011.91 1012.25 1012.61 1013.00 1013.44 1013.92 1014.41 1014.89 1015.32 1015.67 1015.93 1016.11 1016.23 1016.33 1016.44 1016.59 1016.79 1017.04 1017.30 1017.55 1017.74 1017.87 1017.91 1017.87 1017.78 1017.67 1017.58 1017.53 1017.54 1017.61 1017.73 1017.88 1018.04 1018.18 1018.28 1018.36
1008.26 1008.87 1009.47 1010.05 1010.59 1011.09 1011.54 1011.97 1012.38 1012.82 1013.28 1013.78 1014.30 1014.83 1015.33 1015.77 1016.14 1016.43 1016.63 1016.78 1016.90 1017.02 1017.17 1017.35 1017.57 1017.80 1018.01 1018.19 1018.30 1018.34 1018.31 1018.22 1018.10 1017.99 1017.90 1017.87 1017.88 1017.94 1018.03 1018.14 1018.25 1018.34 1018.41
1009.08 1009.44 1009.83 1010.26 1010.70 1011.15 1011.61 1012.09 1012.58 1013.10 1013.65 1014.21 1014.79 1015.35 1015.88 1016.35 1016.75 1017.06 1017.28 1017.45 1017.57 1017.69 1017.81 1017.95 1018.11 1018.29 1018.46 1018.60 1018.69 1018.71 1018.68 1018.60 1018.49 1018.37 1018.26 1018.19 1018.15 1018.16 1018.21 1018.28 1018.37 1018.46 1018.54
1010.11 1010.22 1010.39 1010.64 1010.96 1011.36 1011.82 1012.34 1012.91 1013.51 1014.13 1014.77 1015.40 1016.01 1016.57 1017.07 1017.48 1017.81 1018.05 1018.22 1018.34 1018.43 1018.51 1018.59 1018.69 1018.79 1018.90 1018.99 1019.04 1019.06 1019.03 1018.96 1018.85 1018.73 1018.61 1018.51 1018.44 1018.40 1018.41 1018.45 1018.52 1018.62 1018.72
1011.31 1011.20 1011.18 1011.26 1011.47 1011.81 1012.26 1012.80 1013.42 1014.09 1014.79 1015.48 1016.17 1016.81 1017.40 1017.91 1018.34 1018.68 1018.93 1019.09 1019.19 1019.24 1019.27 1019.29 1019.31 1019.33 1019.37 1019.40 1019.43 1019.43 1019.40 1019.33 1019.24 1019.12 1018.99 1018.85 1018.74 1018.66 1018.62 1018.63 1018.69 1018.78 1018.91
1012.63 1012.36 1012.20 1012.16 1012.29 1012.57 1013.00 1013.55 1014.20 1014.91 1015.65 1016.38 1017.09 1017.76 1018.36 1018.87 1019.31 1019.64 1019.88 1020.03 1020.10 1020.11 1020.08 1020.03 1019.98 1019.94 1019.91 1019.89 1019.88 1019.87 1019.84 1019.78 1019.69 1019.56 1019.41 1019.24 1019.08 1018.95 1018.85 1018.81 1018.84 1018.93 1019.07
1013.99 1013.67 1013.44 1013.35 1013.42 1013.66 1014.06 1014.60 1015.25 1015.96 1016.71 1017.45 1018.16 1018.81 1019.39 1019.90 1020.31 1020.62 1020.84 1020.96 1021.01 1020.98 1020.91 1020.81 1020.70 1020.60 1020.52 1020.47 1020.43 1020.40 1020.36 1020.30 1020.20 1020.07 1019.89 1019.68 1019.46 1019.26 1019.10 1019.00 1018.98 1019.03 1019.16
1015.37 1015.09 1014.87 1014.77 1014.82 1015.04 1015.41 1015.92 1016.53 1017.21 1017.92 1018.63 1019.29 1019.90 1020.44 1020.90 1021.27 1021.55 1021.73 1021.83 1021.85 1021.79 1021.69 1021.56 1021.42 1021.28 1021.17 1021.09 1021.03 1020.99 1020.95 1020.88 1020.78 1020.62 1020.41 1020.16 1019.88 1019.61 1019.37 1019.20 1019.11 1019.11 1019.20
Thickness
5822 5815 5808 5805 5801 5796 5792 5789 5786 5783 5780 5778 5776 5774 5773 5771 5769 5768 5766 5764 5763 5761 5759 5758 5756 5755 5754 5754 5753 5753 5752 5752 5751 5751 5750 5748 5747 5745 5744 5743 5743 5741 5739
5824 5813 5807 5802 5798 5794 5789 5786 5782 5779 5777 5775 5773 5771 5769 5767 5766 5764 5763 5761 5759 5758 5756 5754 5753 5752 5751 5751 5750 5749 5749 5749 5748 5747 5747 5745 5743 5742 5741 5741 5741 5738 5736
5820 5811 5804 5800 5796 5791 5787 5783 5779 5776 5773 5771 5769 5767 5765 5764 5762 5761 5759 5757 5756 5754 5753 5751 5750 5749 5748 5748 5747 5747 5746 5746 5745 5745 5745 5744 5741 5738 5737 5737 5736 5734 5732
5817 5809 5803 5797 5793 5789 5784 5780 5776 5773 5770 5768 5766 5764 5762 5761 5759 5757 5756 5754 5752 5751 5749 5748 5748 5747 5746 5745 5745 5744 5744 5743 5743 5743 5743 5742 5740 5736 5734 5733 5732 5730 5728
5814 5807 5798 5794 5790 5786 5781 5777 5773 5770 5767 5765 5763 5761 5759 5757 5756 5754 5753 5751 5749 5748 5746 5745 5745 5744 5743 5743 5743 5743 5742 5742 5741 5741 5742 5741 5737 5734 5731 5730 5728 5726 5725
5811 5803 5794 5790 5786 5782 5778 5774 5771 5767 5764 5762 5760 5758 5756 5754 5753 5751 5749 5748 5746 5745 5743 5742 5742 5741 5741 5740 5740 5741 5741 5740 5740 5742 5742 5740 5735 5732 5729 5727 5725 5723 5722
5809 5800 5791 5786 5782 5778 5775 5771 5767 5764 5762 5759 5757 5755 5753 5752 5750 5748 5746 5745 5743 5742 5741 5740 5739 5739 5739 5738 5738 5738 5739 5739 5739 5741 5742 5739 5734 5730 5727 5725 5723 5720 5719
5808 5797 5787 5782 5778 5775 5771 5768 5764 5761 5759 5756 5754 5752 5750 5749 5748 5746 5744 5743 5741 5740 5738 5738 5737 5737 5737 5736 5736 5736 5737 5737 5740 5742 5741 5738 5733 5729 5725 5723 5720 5718 5716
5808 5795 5785 5779 5774 5771 5767 5764 5762 5759 5756 5754 5752 5750 5748 5747 5745 5744 5742 5741 5739 5738 5737 5736 5735 5735 5735 5735 5735 5735 5736 5737 5737 5740 5738 5734 5731 5728 5724 5721 5718 5716 5714
5805 5795 5787 5780 5774 5768 5764 5761 5758 5756 5754 5752 5750 5748 5746 5745 5744 5742 5741 5739 5738 5737 5736 5735 5734 5734 5734 5734 5734 5735 5735 5736 5738 5739 5735 5731 5728 5725 5722 5719 5717 5715 5712
5801 5794 5789 5782 5775 5770 5765 5759 5756 5753 5751 5749 5747 5746 5745 5744 5744 5742 5741 5738 5737 5736 5735 5734 5733 5733 5734 5734 5734 5734 5734 5735 5739 5739 5735 5731 5728 5725 5721 5717 5715 5713 5711
5795 5793 5791 5783 5777 5773 5768 5759 5755 5753 5750 5749 5748 5746 5745 5746 5746 5744 5741 5739 5737 5736 5734 5734 5733 5733 5733 5734 5734 5734 5734 5736 5738 5739 5735 5731 5727 5724 5720 5717 5714 5712 5709
5797 5793 5791 5785 5779 5776 5770 5761 5758 5756 5751 5749 5749 5747 5746 5747 5746 5744 5741 5738 5737 5736 5735 5734 5733 5733 5735 5737 5737 5736 5736 5737 5738 5737 5733 5729 5726 5722 5720 5716 5713 5710 5707
5797 5793 5790 5786 5780 5776 5771 5765 5761 5758 5753 5752 5750 5748 5747 5747 5747 5746 5744 5741 5740 5739 5738 5737 5735 5736 5737 5738 5737 5737 5737 5736 5735 5732 5730 5726 5723 5720 5717 5715 5711 5708 5705
5795 5791 5788 5785 5779 5774 5770 5766 5763 5760 5756 5755 5751 5748 5748 5748 5746 5747 5745 5743 5742 5741 5739 5737 5736 5736 5735 5735 5735 5735 5733 5732 5731 5728 5725 5722 5719 5717 5714 5711 5709 5706 5703
5794 5790 5787 5783 5777 5771 5766 5764 5762 5759 5757 5755 5752 5749 5747 5747 5746 5744 5742 5740 5739 5738 5736 5735 5733 5732 5730 5729 5728 5729 5728 5726 5726 5723 5720 5717 5715 5712 5710 5707 5704 5702 5700
5793 5789 5784 5781 5775 5769 5764 5761 5760 5758 5756 5754 5750 5747 5745 5743 5742 5741 5738 5735 5733 5732 5731 5729 5728 5726 5725 5724 5722 5722 5721 5719 5717 5715 5713 5711 5709 5706 5704 5701 5699 5697 5695
5789 5784 5781 5778 5771 5765 5761 5758 5758 5756 5754 5751 5748 5745 5742 5740 5738 5735 5733 5730 5729 5727 5725 5723 5720 5718 5716 5715 5714 5713 5713 5712 5710 5708 5706 5705 5704 5701 5698 5694 5692 5691 5690
5784 5779 5775 5773 5766 5761 5757 5754 5753 5751 5749 5746 5743 5741 5738 5735 5733 5729 5727 5725 5723 5720 5718 5716 5714 5711 5708 5706 5706 5706 5706 5705 5703 5701 5700 5699 5696 5694 5691 5688 5685 5683 5682
5777 5773 5769 5766 5761 5757 5753 5749 5747 5745 5742 5739 5736 5734 5731 5728 5726 5724 5720 5717 5715 5713 5710 5707 5705 5703 5701 5699 5698 5698 5697 5697 5695 5693 5692 5691 5688 5685 5683 5681 5678 5675 5673
5765 5762 5759 5756 5754 5752 5747 5742 5739 5736 5733 5730 5727 5724 5721 5719 5717 5715 5712 5709 5707 5704 5701 5699 5697 5695 5692 5691 5688 5687 5689 5690 5687 5684 5684 5682 5679 5677 5674 5671 5669 5666 5663
5750 5750 5749 5749 5747 5745 5744 5740 5736 5731 5727 5722 5717 5713 5710 5708 5706 5705 5702 5700 5697 5695 5693 5691 5689 5685 5684 5682 5678 5675 5674 5676 5676 5676 5674 5673 5670 5668 5665 5661 5659 5656 5652
5738 5738 5740 5741 5740 5739 5738 5735 5731 5724 5718 5713 5707 5702 5699 5696 5693 5692 5692 5689 5687 5685 5682 5680 5679 5677 5673 5672 5671 5666 5662 5660 5662 5664 5663 5661 5659 5656 5653 5650 5647 5644 5640
5725 5728 5730 5731 5731 5732 5731 5728 5723 5716 5709 5702 5696 5690 5686 5684 5682 5680 5680 5677 5675 5673 5671 5670 5667 5666 5664 5661 5660 5657 5654 5651 5647 5646 5648 5647 5646 5643 5640 5638 5634 5631 5626
5714 5715 5717 5718 5718 5720 5719 5718 5713 5705 5698 5691 5686 5680 5676 5673 5671 5668 5666 5665 5663 5661 5659 5657 5655 5653 5651 5649 5646 5644 5642 5639 5636 5632 5631 5631 5631 5630 5628 5625 5621 5617 5613
5701 5702 5704 5705 5704 5705 5705 5704 5700 5692 5686 5680 5675 5668 5664 5661 5658 5656 5653 5652 5649 5648 5646 5644 5642 5639 5637 5635 5632 5630 5628 5625 5621 5619 5616 5616 5615 5614 5613 5611 5606 5602 5598